• Join FlightAware (Why Join?)
  • Login
  • US Flag GB Flag 
18:15 EST


 

Airport Tracker/Info


-or-


 

Live Flight TrackerFlight Track Log ✈ DAL6034 ✈ 19-Apr-2013 ✈ KMHT - KLGA

Flight Track Log - Related Links

Times and Time Zones

All times are in EDT time to prevent confusion due to time zone crossing. See the DAL6034 flight status page for this flight to view local times or setup timezone preferences in your user account.

Time Position Orientation Groundspeed Altitude Reporting Facility
EDT Latitude Longitude Course Direction KTS MPH feet Rate Location/Type
18:24 42.9167 -71.4167 202° Southwest 147 169 1,000  Level KA90
18:26 42.9547 -71.4669 316° Northwest 189 217 5,900 1,980 Climbing Boston Center
18:27 43.0333 -70.9166 144° Southeast  Level FlightAware Approximate
18:27 42.9853 -71.3672 67° East 225 259 7,500  Level Boston Center
18:28 42.9371 -70.8924 202° Southwest  Level FlightAware Approximate
18:28 43.0300 -71.2642 59° Northeast 278 320 9,400  Level Boston Center
18:29 42.8335 -70.9499 202° Southwest  Level FlightAware Approximate
18:29 43.0931 -71.3142 330° Northwest 188 216 11,100  Level Boston Center
18:30 43.1044 -71.4306 278° West 201 231 12,500 1,500 Climbing Boston Center
18:31 43.1181 -71.5383 280° West 251 289 14,200 1,620 Climbing Boston Center
18:32 43.0686 -71.6217 231° Southwest 276 318 15,800 900 Climbing Boston Center
18:33 43.0067 -71.7019 223° Southwest 295 339 16,000 60 Climbing Boston Center
18:34 42.9361 -71.7878 222° Southwest 338 389 16,000  Level Boston Center
18:35 42.8658 -71.8764 223° Southwest 343 395 16,000  Level Boston Center
18:36 42.7953 -71.9592 221° Southwest 338 389 16,000  Level Boston Center
18:37 42.7311 -72.0358 221° Southwest 331 381 16,000  Level Boston Center
18:38 42.6667 -72.1125 221° Southwest 319 367 16,000  Level Boston Center
18:39 42.6044 -72.1892 222° Southwest 314 361 16,000  Level Boston Center
18:40 42.5419 -72.2625 221° Southwest 308 354 16,000  Level Boston Center
18:41 42.4817 -72.3389 223° Southwest 308 354 16,000  Level Boston Center
18:42 42.4192 -72.4092 220° Southwest 303 349 16,000  Level Boston Center
18:43 42.3461 -72.4992 222° Southwest 303 349 16,000 -120 Level Boston Center
18:44 42.2836 -72.5692 220° Southwest 296 341 15,800 -780 Descending Boston Center
18:45 42.2292 -72.6561 230° Southwest 301 346 14,500 -960 Descending Boston Center
18:46 42.1811 -72.7314 229° Southwest 322 371 14,000 -300 Descending Boston Center
18:47 42.1206 -72.8264 229° Southwest 295 339 14,000  Level Boston Center
18:48 42.0744 -72.8961 228° Southwest 281 323 14,000  Level Boston Center
18:49 42.0239 -72.9767 230° Southwest 281 323 14,000  Level Boston Center
18:50 41.9736 -73.0517 228° Southwest 281 323 14,000  Level Boston Center
18:51 41.9106 -73.1292 222° Southwest 287 330 14,000  Level Boston Center
18:52 41.8561 -73.1983 223° Southwest 293 337 14,000  Level Boston Center
18:53 41.7889 -73.2753 220° Southwest 293 337 14,000 -60 Level Boston Center
18:54 41.7278 -73.3469 221° Southwest 293 337 13,900 -60 Descending Boston Center
18:55 41.6708 -73.4128 221° Southwest 293 337 13,900 -360 Level Boston Center
18:57 41.5667 -73.5167 217° Southwest 286 329 13,000 -1,020 Descending New York TRACON
18:58 41.5167 -73.6000 231° Southwest 248 285 11,300 -1,680 Descending New York TRACON
18:59 41.4667 -73.6500 217° Southwest 239 275 9,700 -1,680 Descending New York TRACON
19:00 41.4167 -73.7000 217° Southwest 226 260 8,200 -900 Descending New York TRACON
19:01 41.3833 -73.7667 236° Southwest 211 243 8,000 -240 Descending New York TRACON
19:02 41.3167 -73.7667 180° South 256 295 7,800 -840 Descending New York TRACON
19:03 41.2500 -73.7167 151° Southeast 261 300 6,400 -1,440 Descending New York TRACON
19:04 41.2000 -73.6833 153° Southeast 226 260 5,100 -1,320 Descending New York TRACON
19:05 41.1500 -73.6667 166° South 208 239 4,000 -540 Descending New York TRACON
19:06 41.0833 -73.6500 169° South 187 215 4,000  Level New York TRACON
19:07 41.0333 -73.6667 194° South 217 250 4,000  Level New York TRACON
19:08 40.9833 -73.7000 207° Southwest 199 229 4,000 -480 Level New York TRACON
19:09 40.9500 -73.7333 217° Southwest 199 229 3,100 -780 Descending New York TRACON
19:10 40.9000 -73.7833 217° Southwest 198 228 2,500 -600 Descending New York TRACON